"Sample Date","Sample Time","Sample Value","Units","Flow Rate","Laser Status","Micron Size 0","Counts/Channel 0","Micron Size 1","Counts/Channel 1","Micron Size 2","Counts/Channel 2","Micron Size 3","Counts/Channel 3","Micron Size 4","Counts/Channel 4","Micron Size 5","Counts/Channel 5","Micron Size 6","Counts/Channel 6","Micron Size 7","Counts/Channel 7","Micron Size 8","Counts/Channel 8","Micron Size 9","Counts/Channel 9","Micron Size 10","Counts/Channel 10","Micron Size 11","Counts/Channel 11","Micron Size 12","Counts/Channel 12","Micron Size 13","Counts/Channel 13","Micron Size 14","Counts/Channel 14","Micron Size 15","Counts/Channel 15","Micron Size 16","Counts/Channel 16","Micron Size 17","Counts/Channel 17","Micron Size 18","Counts/Channel 18","Micron Size 19","Counts/Channel 19","Micron Size 20","Counts/Channel 20","Micron Size 21","Counts/Channel 21","Micron Size 22","Counts/Channel 22","Micron Size 23","Counts/Channel 23","Micron Size 24","Counts/Channel 24","Micron Size 25","Counts/Channel 25","Micron Size 26","Counts/Channel 26","Micron Size 27","Counts/Channel 27","Micron Size 28","Counts/Channel 28","Micron Size 29","Counts/Channel 29","Micron Size 30","Counts/Channel 30","Micron Size 31","Counts/Channel 31"
"03/03/08","16:00:04",46754.000,"cc",28375.320,1,0.100,43113.000,0.200,2254.000,0.300,511.000,0.500,587.000,1.000,289.000,5.000,0
"03/03/08","16:00:10",47074.000,"cc",28353.690,1,0.100,43422.000,0.200,2326.000,0.300,503.000,0.500,562.000,1.000,261.000,5.000,0
"03/03/08","16:00:16",47461.000,"cc",28299.842,1,0.100,43849.000,0.200,2248.000,0.300,517.000,0.500,586.000,1.000,261.000,5.000,0
"03/03/08","16:00:22",47268.000,"cc",28268.773,1,0.100,43614.000,0.200,2276.000,0.300,514.000,0.500,600.000,1.000,264.000,5.000,0
"03/03/08","16:00:28",47626.000,"cc",28314.744,1,0.100,43902.000,0.200,2329.000,0.300,512.000,0.500,617.000,1.000,266.000,5.000,0
"03/03/08","16:00:34",47630.000,"cc",28306.732,1,0.100,43938.000,0.200,2300.000,0.300,531.000,0.500,591.000,1.000,270.000,5.000,0
"03/03/08","16:00:40",47793.000,"cc",28268.211,1,0.100,44182.000,0.200,2246.000,0.300,513.000,0.500,607.000,1.000,245.000,5.000,0
"03/03/08","16:00:46",48635.000,"cc",28333.096,1,0.100,44880.000,0.200,2426.000,0.300,520.000,0.500,561.000,1.000,248.000,5.000,0
"03/03/08","16:00:52",48761.000,"cc",28326.639,1,0.100,44880.000,0.200,2477.000,0.300,513.000,0.500,628.000,1.000,263.000,5.000,0
"03/03/08","16:00:58",48826.000,"cc",28371.406,1,0.100,44972.000,0.200,2453.000,0.300,539.000,0.500,584.000,1.000,278.000,5.000,0
"03/03/08","16:01:04",48598.000,"cc",28297.781,1,0.100,44768.000,0.200,2456.000,0.300,532.000,0.500,608.000,1.000,234.000,5.000,0
"03/03/08","16:01:10",49193.000,"cc",28287.035,1,0.100,45319.000,0.200,2438.000,0.300,549.000,0.500,600.000,1.000,287.000,5.000,0
"03/03/08","16:01:16",49087.000,"cc",28258.648,1,0.100,45129.000,0.200,2562.000,0.300,504.000,0.500,616.000,1.000,276.000,5.000,0
"03/03/08","16:01:22",49827.000,"cc",28385.701,1,0.100,45912.000,0.200,2571.000,0.300,532.000,0.500,568.000,1.000,244.000,5.000,0
"03/03/08","16:01:28",50071.000,"cc",28359.502,1,0.100,45936.000,0.200,2743.000,0.300,547.000,0.500,602.000,1.000,243.000,5.000,0
"03/03/08","16:01:34",51127.000,"cc",28283.113,1,0.100,47108.000,0.200,2622.000,0.300,531.000,0.500,593.000,1.000,273.000,5.000,0
"03/03/08","16:01:40",51173.000,"cc",28251.902,1,0.100,46965.000,0.200,2885.000,0.300,513.000,0.500,552.000,1.000,258.000,5.000,0
"03/03/08","16:01:46",49673.000,"cc",28370.690,1,0.100,45689.000,0.200,2591.000,0.300,530.000,0.500,606.000,1.000,257.000,5.000,0
"03/03/08","16:01:52",50506.000,"cc",28351.940,1,0.100,46503.000,0.200,2662.000,0.300,494.000,0.500,576.000,1.000,271.000,5.000,0
"03/03/08","16:01:58",50910.000,"cc",28295.639,1,0.100,46773.000,0.200,2780.000,0.300,533.000,0.500,579.000,1.000,245.000,5.000,0
"03/03/08","16:02:04",50997.000,"cc",28320.238,1,0.100,46802.000,0.200,2825.000,0.300,537.000,0.500,594.000,1.000,239.000,5.000,0
"03/03/08","16:02:10",50610.000,"cc",28324.053,1,0.100,46374.000,0.200,2703.000,0.300,599.000,0.500,649.000,1.000,285.000,5.000,0
"03/03/08","16:02:16",50509.000,"cc",28299.293,1,0.100,46426.000,0.200,2657.000,0.300,533.000,0.500,621.000,1.000,272.000,5.000,0
"03/03/08","16:02:22",50440.000,"cc",28425.908,1,0.100,46474.000,0.200,2614.000,0.300,512.000,0.500,565.000,1.000,275.000,5.000,0
"03/03/08","16:02:28",52500.000,"cc",28290.635,1,0.100,48142.000,0.200,2945.000,0.300,548.000,0.500,603.000,1.000,262.000,5.000,0
"03/03/08","16:02:34",52603.000,"cc",28227.010,1,0.100,48297.000,0.200,2865.000,0.300,567.000,0.500,603.000,1.000,271.000,5.000,0
"03/03/08","16:02:40",52272.000,"cc",28261.783,1,0.100,47972.000,0.200,2918.000,0.300,555.000,0.500,567.000,1.000,260.000,5.000,0
"03/03/08","16:02:46",52434.000,"cc",28368.670,1,0.100,48099.000,0.200,2893.000,0.300,563.000,0.500,622.000,1.000,257.000,5.000,0
"03/03/08","16:02:52",51236.000,"cc",28317.662,1,0.100,46912.000,0.200,2812.000,0.300,557.000,0.500,685.000,1.000,270.000,5.000,0
"03/03/08","16:02:58",51981.000,"cc",28322.682,1,0.100,47869.000,0.200,2715.000,0.300,541.000,0.500,571.000,1.000,285.000,5.000,0
"03/03/08","16:03:04",52394.000,"cc",28362.611,1,0.100,48046.000,0.200,2991.000,0.300,560.000,0.500,529.000,1.000,268.000,5.000,0
"03/03/08","16:03:10",52655.000,"cc",28349.682,1,0.100,48338.000,0.200,2905.000,0.300,549.000,0.500,601.000,1.000,262.000,5.000,0
"03/03/08","16:03:16",53637.000,"cc",28311.777,1,0.100,49264.000,0.200,2988.000,0.300,545.000,0.500,574.000,1.000,266.000,5.000,0
"03/03/08","16:03:22",53874.000,"cc",28300.711,1,0.100,49275.000,0.200,3193.000,0.300,567.000,0.500,525.000,1.000,314.000,5.000,0
"03/03/08","16:03:28",53153.000,"cc",28348.424,1,0.100,48650.000,0.200,3153.000,0.300,534.000,0.500,543.000,1.000,273.000,5.000,0
"03/03/08","16:03:34",53365.000,"cc",28301.400,1,0.100,48855.000,0.200,3061.000,0.300,584.000,0.500,594.000,1.000,271.000,5.000,0
"03/03/08","16:03:40",52994.000,"cc",28302.338,1,0.100,48683.000,0.200,2984.000,0.300,536.000,0.500,556.000,1.000,235.000,5.000,0
"03/03/08","16:03:46",55212.000,"cc",28315.072,1,0.100,50560.000,0.200,3271.000,0.300,536.000,0.500,603.000,1.000,242.000,5.000,0
"03/03/08","16:03:52",57975.000,"cc",28346.586,1,0.100,52932.000,0.200,3661.000,0.300,554.000,0.500,585.000,1.000,243.000,5.000,0
"03/03/08","16:03:58",53807.000,"cc",28301.502,1,0.100,49256.000,0.200,3170.000,0.300,548.000,0.500,583.000,1.000,250.000,5.000,0
"03/03/08","16:04:04",54506.000,"cc",28255.523,1,0.100,49827.000,0.200,3213.000,0.300,574.000,0.500,603.000,1.000,289.000,5.000,0
"03/03/08","16:04:10",51636.000,"cc",28354.346,1,0.100,47413.000,0.200,2845.000,0.300,521.000,0.500,577.000,1.000,280.000,5.000,0
"03/03/08","16:04:16",53335.000,"cc",28323.145,1,0.100,48958.000,0.200,2979.000,0.300,520.000,0.500,621.000,1.000,257.000,5.000,0
"03/03/08","16:04:22",55331.000,"cc",28285.033,1,0.100,50718.000,0.200,3203.000,0.300,535.000,0.500,591.000,1.000,284.000,5.000,0
"03/03/08","16:04:28",54744.000,"cc",28302.764,1,0.100,50182.000,0.200,3170.000,0.300,578.000,0.500,555.000,1.000,259.000,5.000,0
"03/03/08","16:04:34",53637.000,"cc",28307.252,1,0.100,49231.000,0.200,3003.000,0.300,523.000,0.500,610.000,1.000,270.000,5.000,0
"03/03/08","16:04:40",54047.000,"cc",28273.969,1,0.100,49442.000,0.200,3170.000,0.300,588.000,0.500,575.000,1.000,272.000,5.000,0
"03/03/08","16:04:46",54297.000,"cc",28371.236,1,0.100,49770.000,0.200,3157.000,0.300,515.000,0.500,577.000,1.000,278.000,5.000,0
"03/03/08","16:04:52",56135.000,"cc",28348.389,1,0.100,51357.000,0.200,3374.000,0.300,530.000,0.500,591.000,1.000,283.000,5.000,0
"03/03/08","16:04:58",55439.000,"cc",28339.137,1,0.100,50716.000,0.200,3349.000,0.300,554.000,0.500,564.000,1.000,256.000,5.000,0
"03/03/08","16:05:04",58884.000,"cc",28319.361,1,0.100,53686.000,0.200,3740.000,0.300,600.000,0.500,588.000,1.000,270.000,5.000,0
"03/03/08","16:05:10",61586.000,"cc",28290.063,1,0.100,56089.000,0.200,4106.000,0.300,572.000,0.500,573.000,1.000,246.000,5.000,0
"03/03/08","16:05:16",64654.000,"cc",28343.035,1,0.100,58548.000,0.200,4671.000,0.300,642.000,0.500,558.000,1.000,235.000,5.000,0
"03/03/08","16:05:22",67591.000,"cc",28336.367,1,0.100,61213.000,0.200,4939.000,0.300,608.000,0.500,575.000,1.000,256.000,5.000,0
"03/03/08","16:05:28",66678.000,"cc",28318.057,1,0.100,60434.000,0.200,4780.000,0.300,618.000,0.500,571.000,1.000,275.000,5.000,0
"03/03/08","16:05:34",65279.000,"cc",28303.111,1,0.100,59298.000,0.200,4535.000,0.300,640.000,0.500,550.000,1.000,256.000,5.000,0
"03/03/08","16:05:40",65804.000,"cc",28212.035,1,0.100,59835.000,0.200,4559.000,0.300,586.000,0.500,570.000,1.000,254.000,5.000,0
"03/03/08","16:05:46",59016.000,"cc",28375.320,1,0.100,53878.000,0.200,3700.000,0.300,566.000,0.500,605.000,1.000,267.000,5.000,0
"03/03/08","16:05:52",57190.000,"cc",28336.895,1,0.100,52376.000,0.200,3399.000,0.300,557.000,0.500,600.000,1.000,258.000,5.000,0
"03/03/08","16:05:58",57227.000,"cc",28330.807,1,0.100,52272.000,0.200,3547.000,0.300,545.000,0.500,590.000,1.000,273.000,5.000,0
"03/03/08","16:06:04",56630.000,"cc",28296.211,1,0.100,51720.000,0.200,3505.000,0.300,571.000,0.500,569.000,1.000,265.000,5.000,0
"03/03/08","16:06:10",57675.000,"cc",28320.777,1,0.100,52657.000,0.200,3604.000,0.300,548.000,0.500,600.000,1.000,266.000,5.000,0
"03/03/08","16:06:16",57666.000,"cc",28317.773,1,0.100,52584.000,0.200,3634.000,0.300,575.000,0.500,578.000,1.000,295.000,5.000,0
"03/03/08","16:06:22",57507.000,"cc",28312.867,1,0.100,52553.000,0.200,3529.000,0.300,565.000,0.500,564.000,1.000,296.000,5.000,0
"03/03/08","16:06:28",55715.000,"cc",28307.906,1,0.100,50883.000,0.200,3363.000,0.300,604.000,0.500,581.000,1.000,284.000,5.000,0
"03/03/08","16:06:34",57513.000,"cc",28319.926,1,0.100,52559.000,0.200,3575.000,0.300,574.000,0.500,552.000,1.000,253.000,5.000,0
"03/03/08","16:06:40",56656.000,"cc",28323.574,1,0.100,51771.000,0.200,3504.000,0.300,589.000,0.500,530.000,1.000,262.000,5.000,0
"03/03/08","16:06:46",57255.000,"cc",28275.449,1,0.100,52217.000,0.200,3545.000,0.300,589.000,0.500,617.000,1.000,287.000,5.000,0
"03/03/08","16:06:52",55222.000,"cc",28303.711,1,0.100,50647.000,0.200,3212.000,0.300,548.000,0.500,558.000,1.000,257.000,5.000,0
"03/03/08","16:06:58",55786.000,"cc",28344.578,1,0.100,50920.000,0.200,3437.000,0.300,585.000,0.500,595.000,1.000,249.000,5.000,0
"03/03/08","16:07:04",54788.000,"cc",28319.072,1,0.100,50128.000,0.200,3224.000,0.300,582.000,0.500,588.000,1.000,266.000,5.000,0
"03/03/08","16:07:10",56134.000,"cc",28275.356,1,0.100,51376.000,0.200,3343.000,0.300,566.000,0.500,593.000,1.000,256.000,5.000,0
"03/03/08","16:07:16",53923.000,"cc",28332.440,1,0.100,49426.000,0.200,3050.000,0.300,569.000,0.500,610.000,1.000,268.000,5.000,0
"03/03/08","16:07:22",54330.000,"cc",28302.475,1,0.100,49846.000,0.200,3086.000,0.300,548.000,0.500,582.000,1.000,268.000,5.000,0
"03/03/08","16:07:28",52886.000,"cc",28363.041,1,0.100,48610.000,0.200,2923.000,0.300,536.000,0.500,552.000,1.000,265.000,5.000,0
"03/03/08","16:07:34",54119.000,"cc",28323.676,1,0.100,49582.000,0.200,3104.000,0.300,537.000,0.500,598.000,1.000,298.000,5.000,0
"03/03/08","16:07:40",54224.000,"cc",28357.914,1,0.100,49735.000,0.200,3079.000,0.300,576.000,0.500,577.000,1.000,257.000,5.000,0
"03/03/08","16:07:46",55071.000,"cc",28303.846,1,0.100,50487.000,0.200,3179.000,0.300,523.000,0.500,617.000,1.000,265.000,5.000,0
"03/03/08","16:07:52",52936.000,"cc",28278.096,1,0.100,48641.000,0.200,2923.000,0.300,531.000,0.500,584.000,1.000,257.000,5.000,0
"03/03/08","16:07:58",54458.000,"cc",28323.514,1,0.100,49999.000,0.200,3137.000,0.300,535.000,0.500,567.000,1.000,220.000,5.000,0
"03/03/08","16:08:04",54734.000,"cc",28333.936,1,0.100,50154.000,0.200,3194.000,0.300,572.000,0.500,583.000,1.000,231.000,5.000,0
"03/03/08","16:08:10",54066.000,"cc",28322.025,1,0.100,49596.000,0.200,3109.000,0.300,502.000,0.500,610.000,1.000,249.000,5.000,0
"03/03/08","16:08:16",53112.000,"cc",28290.801,1,0.100,48700.000,0.200,3049.000,0.300,531.000,0.500,582.000,1.000,250.000,5.000,0
"03/03/08","16:08:22",52432.000,"cc",28244.926,1,0.100,48167.000,0.200,2896.000,0.300,503.000,0.500,600.000,1.000,266.000,5.000,0
"03/03/08","16:08:28",51200.000,"cc",28310.658,1,0.100,47156.000,0.200,2743.000,0.300,506.000,0.500,537.000,1.000,258.000,5.000,0
"03/03/08","16:08:34",51658.000,"cc",28396.414,1,0.100,47509.000,0.200,2733.000,0.300,574.000,0.500,584.000,1.000,258.000,5.000,0
"03/03/08","16:08:40",51222.000,"cc",28245.879,1,0.100,47199.000,0.200,2653.000,0.300,540.000,0.500,555.000,1.000,275.000,5.000,0
"03/03/08","16:08:46",52197.000,"cc",28318.324,1,0.100,48025.000,0.200,2835.000,0.300,503.000,0.500,576.000,1.000,258.000,5.000,0
"03/03/08","16:08:52",51704.000,"cc",28295.106,1,0.100,47563.000,0.200,2762.000,0.300,561.000,0.500,571.000,1.000,247.000,5.000,0
"03/03/08","16:08:58",51477.000,"cc",28338.680,1,0.100,47427.000,0.200,2702.000,0.300,512.000,0.500,571.000,1.000,265.000,5.000,0
"03/03/08","16:09:04",50659.000,"cc",28370.014,1,0.100,46540.000,0.200,2718.000,0.300,553.000,0.500,597.000,1.000,251.000,5.000,0
"03/03/08","16:09:10",49817.000,"cc",28315.164,1,0.100,45860.000,0.200,2599.000,0.300,545.000,0.500,577.000,1.000,236.000,5.000,0
"03/03/08","16:09:16",49623.000,"cc",28339.008,1,0.100,45908.000,0.200,2362.000,0.300,497.000,0.500,598.000,1.000,258.000,5.000,0
"03/03/08","16:09:22",49761.000,"cc",28283.328,1,0.100,45810.000,0.200,2569.000,0.300,492.000,0.500,631.000,1.000,259.000,5.000,0
"03/03/08","16:09:28",49465.000,"cc",28354.930,1,0.100,45604.000,0.200,2476.000,0.300,528.000,0.500,587.000,1.000,270.000,5.000,0
"03/03/08","16:09:34",48630.000,"cc",28315.602,1,0.100,44900.000,0.200,2377.000,0.300,469.000,0.500,568.000,1.000,316.000,5.000,0
"03/03/08","16:09:40",49294.000,"cc",28303.492,1,0.100,45406.000,0.200,2448.000,0.300,550.000,0.500,595.000,1.000,295.000,5.000,0
"03/03/08","16:09:46",49936.000,"cc",28339.731,1,0.100,46054.000,0.200,2555.000,0.300,514.000,0.500,556.000,1.000,257.000,5.000,0
"03/03/08","16:09:52",49923.000,"cc",28318.734,1,0.100,46048.000,0.200,2567.000,0.300,495.000,0.500,564.000,1.000,249.000,5.000,0
"03/03/08","16:09:58",49344.000,"cc",28310.621,1,0.100,45427.000,0.200,2532.000,0.300,519.000,0.500,590.000,1.000,276.000,5.000,0
"03/03/08","16:10:04",49034.000,"cc",28284.613,1,0.100,45262.000,0.200,2461.000,0.300,499.000,0.500,566.000,1.000,246.000,5.000,0
"03/03/08","16:10:10",49447.000,"cc",28263.799,1,0.100,45656.000,0.200,2436.000,0.300,493.000,0.500,637.000,1.000,225.000,5.000,0
"03/03/08","16:10:16",49279.000,"cc",28295.457,1,0.100,45472.000,0.200,2477.000,0.300,529.000,0.500,570.000,1.000,231.000,5.000,0
"03/03/08","16:10:22",49140.000,"cc",28325.719,1,0.100,45417.000,0.200,2396.000,0.300,495.000,0.500,560.000,1.000,272.000,5.000,0
"03/03/08","16:10:28",48637.000,"cc",28372.807,1,0.100,44813.000,0.200,2470.000,0.300,528.000,0.500,572.000,1.000,254.000,5.000,0
"03/03/08","16:10:34",49616.000,"cc",28281.797,1,0.100,45767.000,0.200,2422.000,0.300,535.000,0.500,636.000,1.000,256.000,5.000,0
"03/03/08","16:10:40",48676.000,"cc",28338.065,1,0.100,44867.000,0.200,2429.000,0.300,537.000,0.500,584.000,1.000,259.000,5.000,0
"03/03/08","16:10:46",48721.000,"cc",28309.178,1,0.100,44972.000,0.200,2452.000,0.300,487.000,0.500,567.000,1.000,243.000,5.000,0
"03/03/08","16:10:52",48264.000,"cc",28343.119,1,0.100,44622.000,0.200,2314.000,0.300,514.000,0.500,580.000,1.000,234.000,5.000,0
"03/03/08","16:10:58",48463.000,"cc",28285.971,1,0.100,44757.000,0.200,2333.000,0.300,519.000,0.500,591.000,1.000,263.000,5.000,0
"03/03/08","16:11:04",48077.000,"cc",28301.463,1,0.100,44409.000,0.200,2351.000,0.300,517.000,0.500,561.000,1.000,239.000,5.000,0
"03/03/08","16:11:10",48473.000,"cc",28342.285,1,0.100,44850.000,0.200,2302.000,0.300,518.000,0.500,575.000,1.000,228.000,5.000,0
"03/03/08","16:11:16",48334.000,"cc",28292.129,1,0.100,44638.000,0.200,2280.000,0.300,544.000,0.500,600.000,1.000,272.000,5.000,0
"03/03/08","16:11:22",48033.000,"cc",28344.629,1,0.100,44447.000,0.200,2267.000,0.300,503.000,0.500,570.000,1.000,246.000,5.000,0
"03/03/08","16:11:28",48277.000,"cc",28329.022,1,0.100,44584.000,0.200,2344.000,0.300,497.000,0.500,611.000,1.000,241.000,5.000,0
"03/03/08","16:11:34",48019.000,"cc",28350.971,1,0.100,44345.000,0.200,2328.000,0.300,530.000,0.500,581.000,1.000,235.000,5.000,0
"03/03/08","16:11:40",48196.000,"cc",28352.016,1,0.100,44497.000,0.200,2352.000,0.300,510.000,0.500,548.000,1.000,289.000,5.000,0
"03/03/08","16:11:46",46919.000,"cc",28310.760,1,0.100,43233.000,0.200,2288.000,0.300,537.000,0.500,585.000,1.000,276.000,5.000,0
"03/03/08","16:11:52",47480.000,"cc",28298.311,1,0.100,43854.000,0.200,2306.000,0.300,507.000,0.500,555.000,1.000,258.000,5.000,0
"03/03/08","16:11:58",47600.000,"cc",28272.930,1,0.100,44110.000,0.200,2175.000,0.300,471.000,0.500,577.000,1.000,267.000,5.000,0
"03/03/08","16:12:04",47859.000,"cc",28293.027,1,0.100,44245.000,0.200,2272.000,0.300,523.000,0.500,570.000,1.000,249.000,5.000,0
"03/03/08","16:12:10",47493.000,"cc",28343.174,1,0.100,43960.000,0.200,2239.000,0.300,458.000,0.500,578.000,1.000,258.000,5.000,0
"03/03/08","16:12:16",47251.000,"cc",28323.188,1,0.100,43734.000,0.200,2157.000,0.300,490.000,0.500,601.000,1.000,269.000,5.000,0
"03/03/08","16:12:22",47655.000,"cc",28310.338,1,0.100,44112.000,0.200,2152.000,0.300,495.000,0.500,628.000,1.000,268.000,5.000,0
"03/03/08","16:12:28",47431.000,"cc",28321.461,1,0.100,43843.000,0.200,2240.000,0.300,491.000,0.500,593.000,1.000,264.000,5.000,0
"03/03/08","16:12:34",47125.000,"cc",28290.645,1,0.100,43526.000,0.200,2268.000,0.300,473.000,0.500,602.000,1.000,256.000,5.000,0
"03/03/08","16:12:40",47302.000,"cc",28326.678,1,0.100,43777.000,0.200,2210.000,0.300,518.000,0.500,553.000,1.000,244.000,5.000,0
"03/03/08","16:12:46",46941.000,"cc",28352.545,1,0.100,43451.000,0.200,2162.000,0.300,499.000,0.500,589.000,1.000,240.000,5.000,0
"03/03/08","16:12:52",46373.000,"cc",28318.432,1,0.100,42928.000,0.200,2141.000,0.300,462.000,0.500,588.000,1.000,254.000,5.000,0
"03/03/08","16:12:58",47138.000,"cc",28292.172,1,0.100,43534.000,0.200,2216.000,0.300,500.000,0.500,575.000,1.000,313.000,5.000,0
"03/03/08","16:13:04",47428.000,"cc",28342.080,1,0.100,43829.000,0.200,2196.000,0.300,540.000,0.500,601.000,1.000,262.000,5.000,0
"03/03/08","16:13:10",47434.000,"cc",28343.660,1,0.100,43854.000,0.200,2286.000,0.300,498.000,0.500,556.000,1.000,240.000,5.000,0
"03/03/08","16:13:16",46965.000,"cc",28318.738,1,0.100,43521.000,0.200,2088.000,0.300,480.000,0.500,602.000,1.000,274.000,5.000,0
"03/03/08","16:13:22",46851.000,"cc",28296.822,1,0.100,43453.000,0.200,2088.000,0.300,480.000,0.500,571.000,1.000,259.000,5.000,0
"03/03/08","16:13:28",46830.000,"cc",28307.537,1,0.100,43336.000,0.200,2083.000,0.300,524.000,0.500,607.000,1.000,280.000,5.000,0
"03/03/08","16:13:34",46924.000,"cc",28309.920,1,0.100,43369.000,0.200,2197.000,0.300,510.000,0.500,610.000,1.000,238.000,5.000,0
"03/03/08","16:13:40",46942.000,"cc",28323.373,1,0.100,43490.000,0.200,2156.000,0.300,508.000,0.500,529.000,1.000,259.000,5.000,0
"03/03/08","16:13:46",46604.000,"cc",28358.969,1,0.100,43229.000,0.200,2068.000,0.300,470.000,0.500,572.000,1.000,265.000,5.000,0
"03/03/08","16:13:52",46860.000,"cc",28313.119,1,0.100,43420.000,0.200,2092.000,0.300,519.000,0.500,572.000,1.000,257.000,5.000,0
"03/03/08","16:13:58",46898.000,"cc",28318.828,1,0.100,43425.000,0.200,2156.000,0.300,510.000,0.500,554.000,1.000,253.000,5.000,0
"03/03/08","16:14:04",46570.000,"cc",28298.006,1,0.100,43141.000,0.200,2105.000,0.300,471.000,0.500,585.000,1.000,268.000,5.000,0
"03/03/08","16:14:10",46671.000,"cc",28292.070,1,0.100,43310.000,0.200,2073.000,0.300,449.000,0.500,548.000,1.000,291.000,5.000,0
"03/03/08","16:14:16",46922.000,"cc",28320.850,1,0.100,43542.000,0.200,2113.000,0.300,442.000,0.500,577.000,1.000,248.000,5.000,0
"03/03/08","16:14:22",46532.000,"cc",28315.885,1,0.100,43061.000,0.200,2124.000,0.300,510.000,0.500,578.000,1.000,259.000,5.000,0
"03/03/08","16:14:28",47429.000,"cc",28246.590,1,0.100,43910.000,0.200,2183.000,0.300,516.000,0.500,558.000,1.000,262.000,5.000,0
"03/03/08","16:14:34",46516.000,"cc",28378.309,1,0.100,43123.000,0.200,2092.000,0.300,513.000,0.500,545.000,1.000,243.000,5.000,0
"03/03/08","16:14:40",46946.000,"cc",28323.815,1,0.100,43523.000,0.200,2061.000,0.300,497.000,0.500,601.000,1.000,264.000,5.000,0
"03/03/08","16:14:46",46841.000,"cc",28282.420,1,0.100,43452.000,0.200,2113.000,0.300,481.000,0.500,553.000,1.000,242.000,5.000,0
"03/03/08","16:14:52",46568.000,"cc",28333.174,1,0.100,43224.000,0.200,2026.000,0.300,470.000,0.500,595.000,1.000,253.000,5.000,0
"03/03/08","16:14:58",47093.000,"cc",28299.613,1,0.100,43697.000,0.200,2080.000,0.300,476.000,0.500,588.000,1.000,252.000,5.000,0
"03/03/08","16:15:04",46882.000,"cc",28331.143,1,0.100,43546.000,0.200,2099.000,0.300,454.000,0.500,559.000,1.000,224.000,5.000,0
"03/03/08","16:15:10",46384.000,"cc",28351.549,1,0.100,42970.000,0.200,2148.000,0.300,490.000,0.500,533.000,1.000,243.000,5.000,0
"03/03/08","16:15:16",46796.000,"cc",28366.055,1,0.100,43339.000,0.200,2142.000,0.300,458.000,0.500,562.000,1.000,295.000,5.000,0
"03/03/08","16:15:22",46785.000,"cc",28335.895,1,0.100,43356.000,0.200,2137.000,0.300,480.000,0.500,554.000,1.000,258.000,5.000,0
"03/03/08","16:15:28",46818.000,"cc",28335.859,1,0.100,43518.000,0.200,1999.000,0.300,480.000,0.500,567.000,1.000,254.000,5.000,0
"03/03/08","16:15:34",46784.000,"cc",28280.775,1,0.100,43297.000,0.200,2157.000,0.300,483.000,0.500,578.000,1.000,269.000,5.000,0
"03/03/08","16:15:40",46749.000,"cc",28337.010,1,0.100,43291.000,0.200,2190.000,0.300,478.000,0.500,546.000,1.000,244.000,5.000,0
"03/03/08","16:15:46",46662.000,"cc",28271.266,1,0.100,43229.000,0.200,2101.000,0.300,525.000,0.500,563.000,1.000,244.000,5.000,0
"03/03/08","16:15:52",46744.000,"cc",28299.701,1,0.100,43326.000,0.200,2061.000,0.300,518.000,0.500,599.000,1.000,240.000,5.000,0
"03/03/08","16:15:58",46545.000,"cc",28285.133,1,0.100,43119.000,0.200,2116.000,0.300,483.000,0.500,567.000,1.000,260.000,5.000,0
"03/03/08","16:16:04",46541.000,"cc",28288.072,1,0.100,43138.000,0.200,2106.000,0.300,482.000,0.500,567.000,1.000,248.000,5.000,0
"03/03/08","16:16:10",46662.000,"cc",28343.943,1,0.100,43214.000,0.200,2186.000,0.300,483.000,0.500,576.000,1.000,203.000,5.000,0
"03/03/08","16:16:16",46697.000,"cc",28394.957,1,0.100,43323.000,0.200,2056.000,0.300,482.000,0.500,585.000,1.000,251.000,5.000,0
"03/03/08","16:16:22",46629.000,"cc",28290.389,1,0.100,43186.000,0.200,2139.000,0.300,500.000,0.500,566.000,1.000,238.000,5.000,0
"03/03/08","16:16:28",46557.000,"cc",28228.857,1,0.100,43117.000,0.200,2129.000,0.300,506.000,0.500,551.000,1.000,254.000,5.000,0
"03/03/08","16:16:34",46824.000,"cc",28297.623,1,0.100,43323.000,0.200,2215.000,0.300,489.000,0.500,551.000,1.000,246.000,5.000,0
"03/03/08","16:16:40",46475.000,"cc",28292.059,1,0.100,43058.000,0.200,2161.000,0.300,446.000,0.500,576.000,1.000,234.000,5.000,0
"03/03/08","16:16:46",46706.000,"cc",28335.035,1,0.100,43330.000,0.200,2127.000,0.300,499.000,0.500,529.000,1.000,221.000,5.000,0
"03/03/08","16:16:52",46097.000,"cc",28395.674,1,0.100,42692.000,0.200,2085.000,0.300,482.000,0.500,592.000,1.000,246.000,5.000,0
"03/03/08","16:16:58",46496.000,"cc",28302.865,1,0.100,43090.000,0.200,2085.000,0.300,494.000,0.500,585.000,1.000,242.000,5.000,0
"03/03/08","16:17:04",46546.000,"cc",28289.246,1,0.100,42979.000,0.200,2189.000,0.300,517.000,0.500,590.000,1.000,271.000,5.000,0
"03/03/08","16:17:10",46445.000,"cc",28328.813,1,0.100,43064.000,0.200,2104.000,0.300,467.000,0.500,557.000,1.000,253.000,5.000,0
"03/03/08","16:17:16",46723.000,"cc",28358.453,1,0.100,43325.000,0.200,2135.000,0.300,456.000,0.500,552.000,1.000,255.000,5.000,0